Tracking 29892 objects as of 21-Nov-2024
HD Live streaming from Space Station
objects crossing your sky now

STARLINK-2526

Track STARLINK-2526 now!
10-day predictions
STARLINK-2526 is classified as:


NORAD ID: 48378
Int'l Code: 2021-038AB
Perigee: 553.2 km
Apogee: 555.5 km
Inclination: 53.1 °
Period: 95.6 minutes
Semi major axis: 6925 km
RCS: Unknown
Launch date: May 4, 2021
Source: United States (US)
Launch site: AIR FORCE EASTERN TEST RANGE (AFETR)
Your satellite tracking list
Your tracking list is empty




NASA's NSSDC Master Catalog

Two Line Element Set (TLE):
1 48378U 21038AB  24325.02369731  .00002676  00000-0  19842-3 0  9999
2 48378  53.0556 322.4761 0001680  83.6653 276.4528 15.06408488195628
Source of the keplerian elements: AFSPC